Погода в Рудках

Украина / Львовская область     49°39′10″N   23°29′12″E
темп.,
°C
ветер,
м/с
пор.,
м/с
влажн.,
%
обл.,
%
осадки,
мм/ч
давл.,
гПа
погр.,
м
29 июня, ср
ср2900:00+19сз3688100 0.1 1019116
03:00+18зсз229456 0.1 101925
06:00+18сз239013 0.0 101875
09:00+23з116848 0.0 1017357
12:00+29ююв11486 0.0 1017904
15:00+33в023561 0.0 10152186
18:00+32вюв22338 0.0 10132572
21:00+25з23583 0.0 101358
30 июня, чт
чт3000:00+21ссв11737 0.5 101411
03:00+19юв1178100 0.5 101411
06:00+19ююв22805 0.0 101411
09:00+25юв235840 0.0 1014285
12:00+31вюв34366 0.0 10141185
15:00+34в423123 0.0 10132420
18:00+33всв533393 0.0 10122030
21:00+27всв495882 0.0 1012182
1 июля, пт
пт100:00+23вюв5117627 0.0 1014318
03:00+21вюв511815 0.0 1014332
06:00+19вюв47917 0.0 1014147
09:00+24вюв796325 0.0 1015567
12:00+29юв78485 0.0 10141157
15:00+33вюв66367 0.0 10131942
18:00+32вюв87375 0.0 10132032
21:00+28вюв7124958 0.0 1013621
2 июля, сб
сб200:00+24юв512618 0.0 1016528
03:00+20ююв366313 0.1 1017114
06:00+19з479599 0.5 1019328
09:00+18з5896100 4.3 1020637
12:00+17зсз5795100 2.0 1022547
15:00+17зсз5793100 2.8 1023586
18:00+18зсз4692100 1.8 1023548
21:00+18сз359157 1.8 1022266
3 июля, вс
вс300:00+16ссз229686 0.0 102348
03:00+17сз2494100 0.0 1023179
06:00+17сз2495100 0.1 1022181
09:00+18с2390100 0.3 1022303
12:00+20ссз2269100 0.0 1022736
15:00+26зсз115142 0.0 10201385
18:00+26зсз11475 0.0 10191512
21:00+22св1261100 0.0 101824